Location: Caltech
(34.1382°N, 118.1253°W)
Time: 07:13:04
(UTC-08:00)

CZ-2C R/B - Visible Passes

Search period start: 13 February 2016 00:00
Search period end: 23 February 2016 00:00
Orbit: 668 x 786 km, 98.1° (Epoch: 12 February)

Date Brightness Start Highest point End Pass type
(mag) Time Alt. Az. Time Alt. Az. Time Alt. Az.
13 Feb 4.7 06:02:43 10° NE 06:06:40 28° E 06:10:38 10° SSE visible
13 Feb 4.5 18:46:27 10° SSW 18:50:41 30° W 18:54:52 10° NW visible
14 Feb 2.3 17:57:56 10° SSE 18:02:48 82° ENE 18:07:32 10° N visible
15 Feb 4.6 06:05:11 10° NE 06:09:14 30° E 06:13:20 10° SSE visible
15 Feb 4.6 18:49:09 10° SSW 18:53:17 28° W 18:57:19 10° NW visible
16 Feb 2.3 18:00:31 10° SSE 18:05:22 87° ENE 18:10:04 10° NNW visible
17 Feb 4.5 06:07:38 10° NE 06:11:48 32° E 06:16:00 10° SSE visible
17 Feb 4.7 18:51:52 10° SSW 18:55:51 26° W 18:59:46 10° NW visible
18 Feb 2.4 18:03:07 10° SSE 18:07:55 87° WSW 18:12:36 10° NNW visible
19 Feb 4.8 18:54:36 10° SSW 18:58:26 24° W 19:02:11 10° NW visible
20 Feb 6.2 05:25:49 10° E 05:26:13 10° E 05:26:38 10° E visible
20 Feb 2.5 18:05:42 10° S 18:10:29 81° W 18:15:08 10° NNW visible
21 Feb 5.0 18:57:20 10° SSW 19:00:59 22° W 19:04:36 10° NW visible
22 Feb 6.1 05:27:25 10° ENE 05:28:48 11° E 05:30:12 10° ESE visible
22 Feb 2.6 18:08:18 10° S 18:13:02 76° WSW 18:17:39 10° NNW visible
